Flag Weather past 2 weeks in Vancouver, Washington, U.S.A.

Now
49 °F

Sunny.


Feels Like: 45 °F
Forecast: 46 / 53 °F
Wind: 8 mph from Southeast

Location: Vancouver - Pearson Airpark

Current Time: Nov 24, 2014 at 10:21:37 AM

Latest Report: Nov 24, 2014 at 9:53 AM


Visibility: 10 mi

Pressure: 30.38 "Hg

Humidity: 86%

Dew point: 45 °F

Location of VancouverLocation

Historic Weather in Vancouver — Graph

°F

Vancouver temperature yesterday

Maximum temperature yesterday: 53 °F (at 10:53 AM)
Minimum temperature yesterday: 47 °F (at 12:53 AM)
Average temperature yesterday: 49 °F

Past Weeks' High & Low Weather Summary

 TemperatureHumidityPressure
High57 °F (Nov 10, 1:53 PM)97% (Nov 10, 7:04 AM)30.52 "Hg (Nov 10, 7:04 AM)
Low21 °F (Nov 15, 3:53 AM)22% (Nov 15, 1:53 PM)29.42 "Hg (Nov 21, 5:53 PM)
Average40 °F64%30.12 "Hg
* Reported Nov 9 8:53 AM — Nov 24 8:53 AM, Vancouver, Weather by CustomWeather, © 2014

Note: Actual official high and low records may vary slightly from our data, if they occured in-between our weather recording intervals... More about our weather records

Advertising

Vancouver weather history for previous 24 hours

 ConditionsComfort  
Time TempWeatherWind HumidityBarometerVisibility
8:53 AM
Nov 24
48 °FBroken clouds.3 mph93%30.37 "Hg10 mi
8:04 AM48 °FCloudy.3 mph93%30.37 "Hg10 mi
7:53 AM48 °FMostly cloudy.3 mph93%30.37 "Hg10 mi
7:00 AM48 °FMostly cloudy.No wind93%30.37 "Hg10 mi
5:53 AM48 °FOvercast.3 mph93%30.36 "Hg10 mi
4:53 AM49 °FOvercast.No wind93%30.36 "Hg10 mi
4:01 AM48 °FOvercast.No wind96%30.36 "Hg9 mi
2:53 AM48 °FOvercast.No wind96%30.37 "Hg7 mi
1:53 AM48 °FFog.No wind96%30.38 "Hg6 mi
12:53 AM48 °FFog.No wind96%30.37 "Hg4 mi
11:53 PM
Nov 23
48 °FFog.No wind93%30.37 "Hg4 mi
10:53 PM48 °FFog.No wind96%30.36 "Hg4 mi
9:53 PM48 °FFog.No wind93%30.35 "Hg5 mi
8:53 PM48 °FMostly cloudy.No wind93%30.34 "Hg8 mi
7:53 PM49 °FMostly cloudy.No wind93%30.33 "Hg8 mi
6:53 PM49 °FOvercast.No wind93%30.31 "Hg10 mi
5:53 PM50 °FMostly cloudy.3 mph89%30.30 "Hg10 mi
4:53 PM50 °FOvercast.5 mph89%30.29 "Hg10 mi
3:53 PM51 °FMore clouds than sun.No wind86%30.26 "Hg10 mi
2:53 PM50 °FLight rain. Fog.3 mph89%30.26 "Hg4 mi
1:53 PM50 °FLight rain. Fog.3 mph89%30.24 "Hg5 mi
12:53 PM51 °FRain. More clouds than sun.7 mph80%30.24 "Hg3 mi
11:53 AM53 °FLight rain. Cloudy.13 mph72%30.24 "Hg10 mi
10:53 AM53 °FMostly cloudy.12 mph72%30.25 "Hg10 mi
Weather by CustomWeather, © 2014

See weather overviewHow to use our weather pages